Tracking 19170 objects as of 23-May-2018
HD Live streaming from Space Station
objects crossing your sky now

CZ-4B DEB

Track CZ-4B DEB now!
10-day predictions


NORAD ID: 36290
Int'l Code: 2008-053L
Perigee: 563.8 km
Apogee: 595.0 km
Inclination: 97.6 °
Period: 96.1 minutes
Semi major axis: 6950 km
RCS: 0.0218 m2 (small)
Launch date: October 25, 2008
Source: People's Republic of China (PRC)
Launch site: Taiyaun Space Center, China (TSC)

Note: This is SATELLITE DEBRIS
aabbcc
Your satellite tracking list
Your tracking list is empty




NASA's NSSDC Master Catalog

Two Line Element Set (TLE):
1 36290U 08053L   18142.16414023 +.00000418 +00000-0 +39916-4 0  9998
2 36290 097.6259 127.4993 0022411 113.2856 247.0728 14.98263729286907
Source of the keplerian elements: AFSPC